ORBCOMM FM24 [-] (25478 NORAD) Tracking and Keplerian Element Data

This shows tracking and keplerian element data for the satellite.

Feedback or suggestion? Click here.




ElementValue
Catalog25478
NameORBCOMM FM24 [-]
Epoch Orbit30283
Epoch Day239.11596168
Epoch Year2023
RAAN149.2343
Inclination45.0087
Eccentricity4.09E-05
Argument of Perigee330.7041
Mean Anonmoly29.3783
Mean Motion14.34569268
Decay Rate1.226E-05
L11 25478U 98053D 23239.11596168 .00001226 00000+0 47979-3 0 9996
L22 25478 45.0087 149.2343 0000409 330.7041 29.3783 14.34569268302835



Live tracking and technical data element details for ORBCOMM FM24 [-] (NORAD 25478). ORBCOMM FM24 [-] can be tracked NOW for your location showing map with azimuth and elevation plus other details from your city location.







IsCatalogInMostPopularTable: catalog: 25478, numindb: 325
Update: records affected: 1



GetName: 25478 ORBCOMM FM24 [-]

Hit Count: updated at: Thu, 15 May 2025 19:32:12 GMT